Back to catalog

STARLINK-3620

AliveCommunicationsVLEO
NORAD 51775·PAYLOAD·🇺🇸 United States

Launched Feb 25, 2022 from Vandenberg Space Force Base

Loading…

Next Passes (next 24 hours)

TLE

FreshSource: CelesTrak SupGP

Epoch: Sep 14, 2026, 14:11 UTC

1 51775C 22017H   26257.59145833  .00150040  00000+0  59552-3 0  2572
2 51775  53.2133 156.9112 0005275 114.9436 323.1641 15.85888663    15

Track STARLINK-3620 in real time with AllMySat

Download on the App Store